Powrót do katalogu

DMSP 5D-2 F13 DEB

AktywnySSO
NORAD 42320·DEBRIS·🇺🇸 United States

Wystrzelony Mar 24, 1995 z Vandenberg Space Force Base

Loading…

Następne Przeloty (najbliższe 24 godziny)

TLE

ŚwieżeSource: Space-Track

Epoka: Sep 14, 2026, 21:06 UTC

1 42320U 95015JN  26257.87923337  .00003674  00000-0  10487-2 0  9997
2 42320  98.6244 302.9270 0005158 338.1125  21.9845 14.45772287595141

Śledź DMSP 5D-2 F13 DEB w czasie rzeczywistym z AllMySat

Download on the App Store